User: anonymous   Login
Location: Unspecified
(0.0000°N, 0.0000°E)
Time: 01:56:12
(UTC+00:00)
Language:

CBERS-1 - Orbit

View from above orbital plane
View from above orbital plane
View from above satellite
View from above satellite

Ground track
Ground track

The orbit data is extracted from the following two-line orbital elements,

1 25940U 99057A   17147.85965438 +.00000023 +00000-0 +23089-4 0  9999
2 25940 098.4900 088.0456 0006231 067.6604 292.5241 14.35387413922898
Epoch (UTC): 27 May 2017 20:37:54
Eccentricity: 0.0006231
inclination: 98.4900°
perigee height: 769 km
apogee height: 778 km
right ascension of ascending node: 88.0456°
argument of perigee: 67.6604°
revolutions per day: 14.35387413
mean anomaly at epoch: 292.5241°
orbit number at epoch: 92289

The dashed part of the orbit path shows where the satellite is in the earth's shadow,  

DLR